Weather History for Guadalupe Pass, TX

Change the Weather History Date:

Friday, April 13, 2012

  Actual Average Record
Temperature  
Mean Temperature 64 °F -  
Max Temperature 79 °F 68 °F 90 °F (2006)
Min Temperature 50 °F 45 °F 26 °F (1997)
Degree Days  
Heating Degree Days 1    
Growing Degree Days 14 (Base 50)    
Moisture  
Dew Point 16 °F    
Average Humidity 17    
Maximum Humidity 29    
Minimum Humidity 9    
Precipitation  
Precipitation 0.00 in - - ()
Sea Level Pressure  
Sea Level Pressure 29.75 in    
Wind  
Wind Speed 17 mph (WSW)    
Max Wind Speed 34 mph    
Max Gust Speed 43 mph    
Visibility 10 miles    
Events      
Averages and records for this station are not official NWS values.
T = Trace of Precipitation, MM = Missing Value Source: NWS Daily Summary

Daily Weather History Graph

Daily Weather History Graph

Search for Another Location

Airport:

Trip Planner

Search our weather history database for the weather conditions in past years. The results will help you decide how hot, cold, wet, or windy it might be!

Date:

Astronomy

Apr. 13, 2012 Rise Set
Actual Time 6:32 AM MDT 7:27 PM MDT
Civil Twilight 6:07 AM MDT 7:52 PM MDT
Nautical Twilight 5:37 AM MDT 8:21 PM MDT
Astronomical Twilight 5:07 AM MDT 8:52 PM MDT
Moon 1:51 AM MDT (4/13) 12:44 PM MDT (4/13)
Length of Visible Light 13h 45m
Length of Day
12h 55m
Waning Gibbous, 47% of the Moon is Illuminated
Apr 13
Waning Gibbous
Apr 21
New
Apr 29
First Quarter
May 5
Full
May 12
Last Quarter

Hourly Weather History & Observations

Time (MDT) Temp. Dew Point Humidity Pressure Visibility Wind Dir Wind Speed Gust Speed Precip Events Conditions
12:51 AM 57.0 °F 19.0 °F 23% 29.80 in 10.0 mi WSW 13.8 mph - N/A   Clear
1:51 AM 55.0 °F 18.0 °F 23% 29.78 in 10.0 mi WSW 17.3 mph - N/A   Clear
2:51 AM 54.0 °F 18.0 °F 24% 29.78 in 10.0 mi WSW 23.0 mph - N/A   Clear
3:51 AM 51.1 °F 19.9 °F 29% 29.79 in 10.0 mi WSW 21.9 mph - N/A   Clear
4:51 AM 50.0 °F 19.0 °F 29% 29.81 in 10.0 mi WSW 15.0 mph - N/A   Clear
5:51 AM 50.0 °F 18.0 °F 28% 29.81 in 10.0 mi WSW 11.5 mph - N/A   Clear
6:51 AM 51.1 °F 18.0 °F 27% 29.83 in 9.0 mi SW 8.1 mph - N/A   Clear
7:51 AM 51.1 °F 16.0 °F 25% 29.86 in 9.0 mi SW 11.5 mph - N/A   Clear
8:51 AM 54.0 °F 17.1 °F 23% 29.87 in 10.0 mi SW 10.4 mph - N/A   Clear
9:51 AM 63.0 °F 17.1 °F 17% 29.85 in 9.0 mi WSW 17.3 mph - N/A   Clear
10:51 AM 68.0 °F 19.0 °F 15% 29.83 in 9.0 mi WSW 19.6 mph - N/A   Clear
11:51 AM 70.0 °F 19.9 °F 15% 29.80 in 10.0 mi WSW 25.3 mph 35.7 mph N/A   Clear
12:51 PM 73.0 °F 19.0 °F 13% 29.78 in 10.0 mi WSW 25.3 mph 34.5 mph N/A   Clear
1:51 PM 75.0 °F 19.0 °F 12% 29.75 in 10.0 mi WSW 20.7 mph 32.2 mph N/A   Clear
2:51 PM 73.9 °F 10.9 °F 9% 29.73 in 10.0 mi WSW 24.2 mph 33.4 mph N/A   Clear
3:51 PM 78.1 °F 14.0 °F 9% 29.67 in 10.0 mi WSW 26.5 mph 33.4 mph N/A   Clear
4:51 PM 78.1 °F 14.0 °F 9% 29.66 in 10.0 mi SW 34.5 mph 42.6 mph N/A   Clear
5:51 PM 77.0 °F 14.0 °F 9% 29.66 in 10.0 mi WSW 19.6 mph 26.5 mph N/A   Clear
6:51 PM 73.0 °F 10.0 °F 9% 29.66 in 10.0 mi WSW 17.3 mph 23.0 mph N/A   Clear
7:51 PM 70.0 °F 10.0 °F 10% 29.67 in 10.0 mi WSW 11.5 mph - N/A   Clear
8:51 PM 71.1 °F 10.9 °F 10% 29.67 in 10.0 mi South 6.9 mph - N/A   Clear
9:51 PM 71.1 °F 12.0 °F 10% 29.64 in 10.0 mi South 8.1 mph - N/A   Clear
10:51 PM 68.0 °F 12.0 °F 11% 29.62 in 10.0 mi SW 15.0 mph - N/A   Clear
11:10 PM 66.0 °F 12.9 °F 13% 29.84 in 10.0 mi West 17.3 mph - N/A   Clear
11:51 PM 66.0 °F 15.1 °F 14% 29.63 in 10.0 mi West 20.7 mph 31.1 mph N/A   Clear